Regional Weather Roundup
Issued by NWS

Home | Current Version | Previous Version | Text Only | Print | Product List | Glossary Off
Versions: 1 2 3 4 5 6 7 8 9 10 11 12 13 14 15 16 17 18 19 20 21 22 23 24 25 26 27 28 29 30 31 32 33 34 35 36 37 38 39 40 41 42 43 44 45 46 47 48 49 50

000
ASUS43 KMPX 020001
RWRMN
WEATHER ROUNDUP FOR MINNESOTA
NATIONAL WEATHER SERVICE TWIN CITIES/CHANHASSEN MN
700 PM CDT MON SEP 01 2014


NOTE: "FAIR" INDICATES FEW OR NO CLOUDS BELOW 12,000 FEET WITH NO
SIGNIFICANT WEATHER AND/OR OBSTRUCTIONS TO VISIBILITY. N/A MEANS
CURRENT SKY AND/OR WEATHER CONDITIONS ARE NOT AVAILABLE.

MNZ060>063-068>070-020100-
   Twin Cities Metro

CITY           SKY/WX    TMP DP  RH WIND       PRES   REMARKS
TWIN CITIES    PTCLDY    75  55  49 W14       29.76S
6HR MIN TEMP:  73; 6HR MAX TEMP:  78;

ST PAUL        PTCLDY    74  54  49 W8        29.76R
CRYSTAL        CLEAR     75  54  47 W7        29.75R
BLAINE         CLEAR     75  55  50 W10       29.76R
LAKEVILLE      PTCLDY    72  57  60 W5        29.78R
EDEN PRAIRIE   CLEAR     74  56  53 W8        29.76S
6HR MIN TEMP:  74; 6HR MAX TEMP:  78;

SOUTH ST PAUL  CLEAR     74  53  47 W7        29.76R
LAKE ELMO      FAIR      72  55  56 W5        29.77R
$$
MNZ001>005-007-008-013>017-022>024-027-028-020100-
   Northwest Minnesota

CITY           SKY/WX    TMP DP  RH WIND       PRES   REMARKS
BEMIDJI        LGT RAIN  63  55  77 SW10      29.74S
HALLOCK        MOSUNNY   68  55  64 SW7       29.70S
ROSEAU         MOCLDY    64  55  72 SW8       29.71S
WARROAD        CLOUDY    63  55  77 W9        29.70S
THIEF RVR FALL MOSUNNY   64  52  63 CALM      29.73F
CROOKSTON      MOSUNNY   66  55  68 CALM      29.74S
FOSSTON        CLOUDY    63  57  82 S5        29.75S
DETROIT LAKES  TSTM      57  54  88 NE3       29.78R
MOORHEAD       MOSUNNY   64  57  77 NE8       29.75R HAZE
PARK RAPIDS    LGT RAIN  59  55  87 NW3       29.76R
MAHNOMEN       MOCLDY    60  56  87 CALM      29.74F
$$
MNZ006-009>011-018-025>026-020100-
   North Central Minnesota

CITY           SKY/WX    TMP DP  RH WIND       PRES   REMARKS
BAUDETTE       MOCLDY    61  57  87 CALM      29.70R
FLAG ISLAND    CLOUDY    63  54  72 CALM      29.67F
INTL FALLS     CLEAR     65  54  67 W5        29.68S
6HR MIN TEMP:  63; 6HR MAX TEMP:  70;

WASKISH        MOCLDY    66  55  68 W21G30    29.71R
BIG FORK       PTCLDY    68  52  56 CALM      29.72R
LONGVILLE      MOCLDY    64  55  72 W7        29.74R
GRAND RAPIDS   PTCLDY    68  48  49 W6        29.73S
CRANE LAKE     CLEAR     64  52  63 CALM      29.70R
ORR            CLEAR     66  50  55 NW3       29.68R
COOK           CLEAR     66  50  55 W5        29.70S
WALKER         LGT RAIN  64  54  69 W14       29.75R
$$
MNZ012-019>021-037-020100-
   Northeast Minnesota

CITY           SKY/WX    TMP DP  RH WIND       PRES   REMARKS
DULUTH         PTCLDY    68  50  52 W8        29.71S
6HR MIN TEMP:  66; 6HR MAX TEMP:  73;

ELY            CLEAR     63  52  67 W7        29.69R
HIBBING        CLEAR     66  51  58 W5        29.71S
EVELETH        CLEAR     64  50  59 W9        29.72R
DULUTH HARBOR  CLEAR     72  55  56 W12       29.70S
TWO HARBORS    CLEAR     66  52  59 W7        29.68R
SILVER BAY     CLEAR     64  57  77 CALM      29.66R
GRAND MARAIS     N/A     66  59  78 W5        29.62R
G MARAIS ARPRT CLEAR     61  54  77 W3        29.67R
$$
MNZ029>031-032-039>041-046>048-054>057-064-020100-
   West Central Minnesota

CITY           SKY/WX    TMP DP  RH WIND       PRES   REMARKS
FERGUS FALLS   PTCLDY    72  55  56 W9        29.73S
WHEATON        PTSUNNY   66  55  68 SW7       29.77R
MORRIS         MOCLDY    70  54  56 W6        29.75S
ALEXANDRIA     PTCLDY    65  58  78 SE3       29.77F
ELBOW LAKE     FAIR      70  57  63 W7        29.74S
WADENA         MOCLDY    68  57  68 S5        29.74S
GLENWOOD       PTCLDY    70  61  73 CALM      29.78S
APPLETON       MOCLDY    72  54  53 CALM      29.77R
BENSON         LGT RAIN  66  55  68 W10       29.78R
ORTONVILLE     LGT RAIN  70  57  64 W8G17     29.78R
MADISON        PTCLDY    73  57  56 W7        29.78S
WILLMAR        FAIR      72  57  60 CALM      29.80R
$$
MNZ033>034-036-042>043-049>051-058-059-020100-
   Central Minnesota

CITY           SKY/WX    TMP DP  RH WIND       PRES   REMARKS
ST CLOUD       CLEAR     74  55  51 W9        29.76R
6HR MIN TEMP:  74; 6HR MAX TEMP:  78;

SAUK CENTRE    MOCLDY    64  50  59 N3        29.78S
PAYNESVILLE    CLEAR     68  55  62 SW6       29.78F
AITKIN         PTCLDY    72  55  56 CALM      29.73S
PINE RIVER     MOCLDY    64  55  72 SW5       29.79R
BRAINERD       PTCLDY    69  54  58 W7        29.75S
STAPLES        MOCLDY    68  54  60 W6        29.75S
LONG PRAIRIE   FAIR      61  55  82 S5        29.77F
LITTLE FALLS   PTCLDY    68  54  60 CALM      29.75F
LITCHFIELD     CLEAR     73  57  56 CALM      29.79S
BUFFALO        CLEAR     73  56  55 W5        29.79R
MAPLE LAKE     CLEAR     73  59  61 CALM      29.78S
$$
MNZ037-044-045-052-053-020100-
   East Central Minnesota

CITY           SKY/WX    TMP DP  RH WIND       PRES   REMARKS
PRINCETON      CLEAR     73  57  56 W6        29.76R
MORA           CLEAR     70  54  56 CALM      29.76S
CAMBRIDGE      CLEAR     73  57  56 W3        29.74R
RUSH CITY      CLEAR     70  54  57 W3        29.75R
MOOSE LAKE     CLEAR     68  52  56 CALM      29.71S
HINCKLEY       FAIR      70  54  56 W5        29.74S
CLOQUET        CLEAR     66  48  52 W6        29.72S
MCGREGOR       CLEAR     68  52  56 W3        29.74S
$$
MNZ071>073-080-081-089-090-097-098-020100-
   Southwest Minnesota

CITY           SKY/WX    TMP DP  RH WIND       PRES   REMARKS
MONTEVIDEO     CLEAR     73  55  53 W3        29.79R
GRANITE FALLS  CLEAR     69  59  70 SW7       29.80S
CANBY          MOSUNNY   71  56  59 SW7       29.80S
MARSHALL       CLEAR     72  55  56 W8        29.80R
REDWOOD FALLS  CLEAR     76  56  49 W7        29.78S
OLIVIA         CLEAR     73  59  60 SW3       29.78F
PIPESTONE      SUNNY     70  57  64 W3        29.85R
WINDOM         CLEAR     73  61  64 W3        29.82S
WORTHINGTON    CLEAR     72  61  68 W5        29.85S
JACKSON        CLEAR     72  59  64 CALM      29.84S
TRACY          CLEAR     74  58  58 CALM      29.82S
SLAYTON        CLEAR     72  56  57 CALM      29.85R
$$
MNZ065>067-074>077-082>085-091>093-020100-
   South Central Minnesota

CITY           SKY/WX    TMP DP  RH WIND       PRES   REMARKS
MANKATO        CLEAR     73  55  53 W6        29.80R
NEW ULM        CLEAR     73  59  60 CALM      29.80R
FAIRMONT       CLEAR     70  57  64 CALM      29.83R
GLENCOE        CLEAR     74  56  53 W6        29.78S
FARIBAULT      PTCLDY    75  54  46 W3        29.79S
OWATONNA       PTCLDY    72  59  64 SW5       29.80S
WASECA         PTCLDY    72  57  60 SW5       29.82S
ALBERT LEA     PTCLDY    72  57  60 W5        29.82R
$$
MNZ078>079-086>088-094>096-020100-
   Southeast Minnesota

CITY           SKY/WX    TMP DP  RH WIND       PRES   REMARKS
ROCHESTER      CLEAR     70  58  65 W6        29.82R
6HR MIN TEMP:  70; 6HR MAX TEMP:  76;

RED WING       PTCLDY    75  57  53 W6        29.75S
STANTON        PTCLDY    73  57  58 W6        29.77S
DODGE CENTER   PTCLDY    72  61  68 W8        29.81S
WINONA         CLEAR     73  55  53 W3        29.77S
AUSTIN         PTCLDY    72  55  56 W8        29.81S
PRESTON        CLEAR     69  63  80 CALM      29.81S
$$
ABBREVIATIONS USED IN REMARKS
   TC - TEMPERATURES IN CELSIUS
  WCI - WIND CHILL INDEX
   HX - HEAT INDEX
  VSB - VISIBILITY
$$



USA.gov is the U.S. government's official web portal to all federal, state and local government web resources and services.